Baltimore, MD

1:08 AM EDT on July 21, 2017 (GMT -0400)
Baltimore-Washington International

Weather History for KBWI - February, 2014

Change the Weather History Date:

Thursday, February 6, 2014

  Actual Average Record
Temperature  
Mean Temperature 31 °F 34 °F  
Max Temperature 35 °F 43 °F 72 °F (2008)
Min Temperature 26 °F 25 °F 1 °F (1895)
Degree Days  
Heating Degree Days 34 31  
Month to date heating degree days 174 186  
Since 1 July heating degree days 3039 2962  
Cooling Degree Days 0 0  
Month to date cooling degree days 0 0  
Year to date cooling degree days 0 0  
Moisture  
Dew Point 15 °F    
Average Humidity 55    
Maximum Humidity 69    
Minimum Humidity 41    
Precipitation  
Precipitation 0.00 in 0.10 in 3.48 in (1896)
Month to date precipitation 1.94 0.62  
Year to date precipitation 4.65 3.67  
Snow  
Snow 0.00 in 0.30 in 16.00 in (2010)
Month to date snowfall 0.0 2.0  
Since 1 July snowfall 12.7 12.2  
Snow Depth 0.00 in    
Sea Level Pressure  
Sea Level Pressure 30.29 in    
Wind  
Wind Speed 7 mph (NW)    
Max Wind Speed 20 mph    
Max Gust Speed 28 mph    
Visibility 10 miles    
Events      
T = Trace of Precipitation, MM = Missing Value Source: NWS Daily Summary

Daily Weather History Graph

Daily Weather History Graph

Search for Another Location

Airport or City:

Trip Planner

Search our weather history database for the weather conditions in past years. The results will help you decide how hot, cold, wet, or windy it might be!

Date:

Astronomy

Feb. 06, 2014 Rise Set
Actual Time 7:08 AM EST 5:33 PM EST
Civil Twilight 6:40 AM EST 6:01 PM EST
Nautical Twilight 6:08 AM EST 6:33 PM EST
Astronomical Twilight 5:37 AM EST 7:04 PM EST
Moon 11:04 AM EST (2/6) 12:22 AM EST (2/6)
Length of Visible Light 11h 20m
Length of Day
10h 24m
Waxing Crescent, 49% of the Moon is Illuminated
Feb 6
Waxing Crescent
Feb 6
First Quarter
Feb 14
Full
Feb 22
Last Quarter
Mar 1
New

Hourly Weather History & Observations

Time (EST) Temp. Windchill Dew Point Humidity Pressure Visibility Wind Dir Wind Speed Gust Speed Precip Events Conditions
1:54 AM 30.0 °F 19.5 °F 17.1 °F 59% 30.16 in 10.0 mi NW 13.8 mph 19.6 mph N/A   Overcast
2:54 AM 30.0 °F 19.1 °F 16.0 °F 56% 30.18 in 10.0 mi NNW 15.0 mph 23.0 mph N/A   Mostly Cloudy
3:54 AM 28.9 °F 19.8 °F 17.1 °F 61% 30.20 in 10.0 mi NNW 10.4 mph 18.4 mph N/A   Mostly Cloudy
4:54 AM 28.0 °F 16.5 °F 16.0 °F 61% 30.24 in 10.0 mi NNW 15.0 mph 21.9 mph N/A   Overcast
5:54 AM 27.0 °F 18.0 °F 12.9 °F 56% 30.26 in 10.0 mi NNW 9.2 mph 16.1 mph N/A   Overcast
6:54 AM 26.1 °F 15.0 °F 12.0 °F 55% 30.29 in 10.0 mi NNW 12.7 mph 18.4 mph N/A   Overcast
7:54 AM 26.1 °F 16.8 °F 12.0 °F 55% 30.33 in 10.0 mi NNW 9.2 mph - N/A   Mostly Cloudy
8:54 AM 27.0 °F 16.7 °F 12.0 °F 53% 30.35 in 10.0 mi North 11.5 mph 18.4 mph N/A   Mostly Cloudy
9:54 AM 28.9 °F 19.2 °F 10.9 °F 47% 30.35 in 10.0 mi NNW 11.5 mph 18.4 mph N/A   Mostly Cloudy
10:54 AM 30.0 °F 21.1 °F 12.9 °F 49% 30.35 in 10.0 mi NNW 10.4 mph 20.7 mph N/A   Mostly Cloudy
11:54 AM 30.9 °F 24.3 °F 12.9 °F 47% 30.33 in 10.0 mi NW 6.9 mph - N/A   Mostly Cloudy
12:54 PM 30.9 °F 22.8 °F 14.0 °F 50% 30.31 in 10.0 mi West 9.2 mph - N/A   Mostly Cloudy
1:54 PM 33.1 °F 28.7 °F 12.9 °F 43% 30.29 in 10.0 mi WNW 4.6 mph 16.1 mph N/A   Mostly Cloudy
2:54 PM 34.0 °F 28.0 °F 12.9 °F 42% 30.29 in 10.0 mi WNW 6.9 mph - N/A   Mostly Cloudy
3:54 PM 33.1 °F 27.7 °F 12.9 °F 43% 30.28 in 10.0 mi NNW 5.8 mph - N/A   Mostly Cloudy
4:54 PM 33.1 °F 28.7 °F 14.0 °F 46% 30.29 in 10.0 mi WNW 4.6 mph - N/A   Scattered Clouds
5:54 PM 30.9 °F 27.5 °F 14.0 °F 50% 30.29 in 10.0 mi NW 3.5 mph - N/A   Scattered Clouds
6:54 PM 30.0 °F - 15.1 °F 54% 30.30 in 10.0 mi Calm Calm - N/A   Mostly Cloudy
7:54 PM 28.0 °F - 17.1 °F 63% 30.30 in 10.0 mi Calm Calm - N/A   Mostly Cloudy
8:54 PM 28.0 °F - 18.0 °F 66% 30.30 in 10.0 mi Calm Calm - N/A   Overcast
9:54 PM 28.9 °F - 18.0 °F 64% 30.32 in 10.0 mi Calm Calm - N/A   Overcast
10:54 PM 28.9 °F 25.2 °F 19.0 °F 67% 30.32 in 10.0 mi SSW 3.5 mph - N/A   Overcast
11:54 PM 28.9 °F - 19.9 °F 69% 30.30 in 10.0 mi Calm Calm - N/A   Overcast